Voltar ao catálogo

FENGYUN 1C DEB

AtivoSSO
NORAD 30156·DEBRIS·🇨🇳 China

Lançado May 10, 1999 de Taiyuan Satellite Launch Center

Loading…

Próximas Passagens (próximas 24 horas)

TLE

AtualizadoSource: Space-Track

Época: Sep 14, 2026, 14:50 UTC

1 30156U 99025TM  26257.61855588  .00001019  00000-0  85804-3 0  9997
2 30156  98.9332 214.8360 0195973 242.0002 295.4758 13.81696653984996

Acompanhe FENGYUN 1C DEB em tempo real com AllMySat

Download on the App Store